Weather History for Gage, OK

Change the Weather History Date:

Friday, March 14, 2014

  Actual Average Record
Temperature  
Mean Temperature 54 °F -  
Max Temperature 69 °F 64 °F 88 °F (1955)
Min Temperature 39 °F 32 °F 8 °F (1962)
Degree Days  
Heating Degree Days 12    
Growing Degree Days 4 (Base 50)    
Moisture  
Dew Point 19 °F    
Average Humidity 27    
Maximum Humidity 49    
Minimum Humidity 14    
Precipitation  
Precipitation 0.00 in - - ()
Sea Level Pressure  
Sea Level Pressure 29.92 in    
Wind  
Wind Speed 13 mph (ESE)    
Max Wind Speed 23 mph    
Max Gust Speed 36 mph    
Visibility 10 miles    
Events      
Averages and records for this station are not official NWS values.
T = Trace of Precipitation, MM = Missing Value Source: NWS Daily Summary

Daily Weather History Graph

Daily Weather History Graph

Search for Another Location

Airport:

Trip Planner

Search our weather history database for the weather conditions in past years. The results will help you decide how hot, cold, wet, or windy it might be!

Date:

Astronomy

Mar. 14, 2014 Rise Set
Actual Time 7:51 AM CDT 7:45 PM CDT
Civil Twilight 7:25 AM CDT 8:11 PM CDT
Nautical Twilight 6:55 AM CDT 8:41 PM CDT
Astronomical Twilight 6:25 AM CDT 9:11 PM CDT
Moon 6:11 PM CDT (3/14) 6:29 AM CDT (3/14)
Length of Visible Light 12h 45m
Length of Day
11h 54m
Waxing Gibbous, 96% of the Moon is Illuminated
Mar 14
Waxing Gibbous
Mar 16
Full
Mar 23
Last Quarter
Mar 30
New
Apr 7
First Quarter

Hourly Weather History & Observations

Time (CDT) Temp. Windchill Dew Point Humidity Pressure Visibility Wind Dir Wind Speed Gust Speed Precip Events Conditions
12:53 AM 54.0 °F - 15.1 °F 22% 29.82 in 10.0 mi South 15.0 mph - N/A   Clear
1:53 AM 53.1 °F - 16.0 °F 23% 29.81 in 10.0 mi South 16.1 mph 23.0 mph N/A   Clear
2:53 AM 53.1 °F - 16.0 °F 23% 29.81 in 10.0 mi SSW 13.8 mph - N/A   Clear
3:53 AM 52.0 °F - 17.1 °F 25% 29.80 in 10.0 mi SSW 11.5 mph - N/A   Clear
4:53 AM 51.1 °F - 18.0 °F 27% 29.80 in 10.0 mi SSW 11.5 mph - N/A   Clear
5:53 AM 48.9 °F - 19.9 °F 32% 29.80 in 10.0 mi SSW 10.4 mph - N/A   Clear
6:53 AM 45.0 °F 40.6 °F 19.9 °F 37% 29.82 in 10.0 mi SSW 8.1 mph - N/A   Clear
7:53 AM 39.0 °F 35.7 °F 21.0 °F 49% 29.86 in 10.0 mi West 4.6 mph - N/A   Clear
8:53 AM 48.9 °F - 21.9 °F 35% 29.91 in 10.0 mi NNE 16.1 mph 19.6 mph N/A   Clear
9:53 AM 54.0 °F - 21.9 °F 29% 29.95 in 10.0 mi NNE 20.7 mph 33.4 mph N/A   Clear
10:53 AM 57.9 °F - 21.9 °F 25% 29.98 in 10.0 mi NNE 21.9 mph 31.1 mph N/A   Clear
11:53 AM 62.1 °F - 21.0 °F 21% 29.98 in 10.0 mi NNE 23.0 mph 35.7 mph N/A   Clear
12:53 PM 64.9 °F - 19.9 °F 18% 29.99 in 10.0 mi NE 18.4 mph 29.9 mph N/A   Clear
1:53 PM 66.9 °F - 19.0 °F 16% 29.99 in 10.0 mi NNE 18.4 mph 27.6 mph N/A   Clear
2:53 PM 66.9 °F - 18.0 °F 15% 29.97 in 10.0 mi NE 15.0 mph 25.3 mph N/A   Clear
3:53 PM 68.0 °F - 17.1 °F 14% 29.96 in 10.0 mi NNE 12.7 mph 21.9 mph N/A   Clear
4:53 PM 66.9 °F - 17.1 °F 15% 29.96 in 10.0 mi ENE 13.8 mph - N/A   Clear
5:53 PM 66.9 °F - 17.1 °F 15% 29.95 in 10.0 mi NE 8.1 mph - N/A   Clear
6:53 PM 63.0 °F - 18.0 °F 18% 29.96 in 10.0 mi East 4.6 mph - N/A   Clear
7:53 PM 54.0 °F - 19.9 °F 26% 29.99 in 10.0 mi SE 5.8 mph - N/A   Clear
8:53 PM 48.0 °F - 19.9 °F 33% 29.99 in 10.0 mi SE 8.1 mph - N/A   Clear
9:53 PM 44.1 °F 39.5 °F 21.0 °F 40% 30.00 in 10.0 mi SSE 8.1 mph - N/A   Clear
10:53 PM 42.1 °F 37.1 °F 21.9 °F 45% 30.00 in 10.0 mi South 8.1 mph - N/A   Clear
11:53 PM 44.1 °F 39.5 °F 23.0 °F 43% 29.98 in 10.0 mi South 8.1 mph - N/A   Clear